Location: Byszew
(52.1813°N, 19.2693°E)
Time: 18:04:11
(UTC+00:00)

Cosmos 1666 - Pass Details

Date: 03 March 2021
Orbit: 497 x 518 km, 82.5° (Epoch: 17 April)

Event Time Altitude Azimuth Distance (km) Brightness Sun altitude
Rises 18:29:48 0° 192° (SSW) 2,576 6.2 -19.6°
Reaches altitude 10° 18:31:54 10° 193° (SSW) 1,699 5.3 -19.9°
Maximum altitude 18:35:37 81° 280° (W) 514 2.6 -20.4°
Drops below altitude 10° 18:39:24 10° 9° (N) 1,721 5.4 -21.0°
Sets 18:41:32 0° 10° (N) 2,613 6.4 -21.3°
